Visibility
15.0 15.0 15.0 15.0 15.0 15.0 15.0 15.0 15.0 15.0 11.3 15.0 14.7 3.4 3.5 3.4 3.1 3.0 5.6 5.7 7.2 9.1
15.0 15.0 15.0 15.0 15.0 15.0 15.0 15.0 15.0 15.0 12.5 15.0 3.9 3.4 2.7 2.5 3.3 3.6 6.8 4.2 15.0 6.2
15.0 15.0 15.0 15.0 15.0 15.0 15.0 15.0 15.0 14.8 14.6 15.0 4.2 3.1 2.8 2.8 2.7 3.4 3.7 6.3 13.6 15.0
15.0 15.0 15.0 15.0 15.0 15.0 15.0 15.0 15.0 15.0 13.4 15.0 3.7 3.7 7.4 2.8 3.1 2.9 5.6 7.0 11.0 15.0
15.0 15.0 15.0 15.0 15.0 15.0 15.0 15.0 15.0 15.0 15.0 13.7 3.4 5.3 4.0 3.1 2.9 2.9 6.0 3.2 8.9 7.9
15.0 15.0 15.0 15.0 15.0 15.0 15.0 15.0 15.0 15.0 11.3 5.3 3.3 5.0 4.9 4.6 3.7 3.6 3.5 6.7 4.9 7.2
15.0 15.0 15.0 15.0 15.0 15.0 15.0 15.0 15.0 13.8 12.9 8.2 5.7 6.5 8.3 5.4 5.1 12.2 14.9 11.3 13.6 6.0
15.0 15.0 15.0 15.0 15.0 15.0 15.0 15.0 15.0 15.0 15.0 15.0 13.3 3.9 6.5 6.3 4.9 8.0 6.1 6.3 11.0 7.9
15.0 15.0 15.0 15.0 15.0 15.0 15.0 15.0 15.0 15.0 15.0 14.4 5.8 14.7 15.0 15.0 8.7 6.6 9.7 15.0 8.1 15.0
15.0 15.0 15.0 15.0 15.0 15.0 15.0 15.0 15.0 15.0 15.0 15.0 14.7 15.0 15.0 15.0 14.9 6.8 5.9 15.0 6.0 12.0
15.0 15.0 15.0 15.0 15.0 15.0 15.0 15.0 15.0 15.0 15.0 15.0 15.0 14.6 15.0 15.0 15.0 15.0 15.0 12.1 6.6 7.2
15.0 15.0 15.0 15.0 15.0 15.0 15.0 15.0 15.0 15.0 15.0 15.0 15.0 15.0 15.0 15.0 15.0 15.0 15.0 15.0 15.0 12.4
15.0 15.0 15.0 15.0 15.0 15.0 15.0 15.0 15.0 15.0 15.0 15.0 15.0 15.0 15.0 15.0 15.0 14.1 15.0 15.0 15.0 15.0
15.0 15.0 15.0 15.0 15.0 15.0 15.0 15.0 15.0 15.0 15.0 15.0 15.0 15.0 15.0 15.0 15.0 15.0 15.0 15.0 13.6 15.0